Weather History for KTEX - June, 2013

Change the Weather History Date:

Friday, June 28, 2013

  Actual Average Record
Temperature  
Mean Temperature 70 °F -  
Max Temperature 84 °F 71 °F 84 °F (2013)
Min Temperature 57 °F 46 °F 42 °F (2003)
Cooling Degree Days 6    
Growing Degree Days 20 (Base 50)    
Moisture  
Dew Point 30 °F    
Average Humidity 23    
Maximum Humidity 38    
Minimum Humidity 12    
Precipitation  
Precipitation 0.00 in - - ()
Sea Level Pressure  
Sea Level Pressure 30.54 in    
Wind  
Wind Speed 5 mph (East)    
Max Wind Speed 17 mph    
Max Gust Speed 24 mph    
Visibility 10 miles    
Events      
Averages and records for this station are not official NWS values.
T = Trace of Precipitation, MM = Missing Value Source: NWS Daily Summary

Daily Weather History Graph

Daily Weather History Graph

Search for Another Location

Airport or City:

Trip Planner

Search our weather history database for the weather conditions in past years. The results will help you decide how hot, cold, wet, or windy it might be!

Date:

Astronomy

Jun. 28, 2013 Rise Set
Actual Time 5:51 AM MDT 8:38 PM MDT
Civil Twilight 5:20 AM MDT 9:09 PM MDT
Nautical Twilight 4:41 AM MDT 9:48 PM MDT
Astronomical Twilight 3:56 AM MDT 10:33 PM MDT
Moon No Moon Rise 11:56 AM MDT (6/28)
Length of Visible Light 15h 49m
Length of Day
14h 46m
Waning Gibbous, 65% of the Moon is Illuminated
Jun 28
Waning Gibbous
Jun 29
Last Quarter
Jul 8
New
Jul 15
First Quarter
Jul 22
Full

Hourly Weather History & Observations

Time (MDT) Temp. Dew Point Humidity Pressure Visibility Wind Dir Wind Speed Gust Speed Precip Events Conditions
12:35 AM 60.8 °F 32.0 °F 34% 30.56 in 10.0 mi ESE 4.6 mph - N/A   Clear
12:55 AM 60.8 °F 32.0 °F 34% 30.56 in 10.0 mi SE 3.5 mph - N/A   Clear
1:15 AM 59.0 °F 32.0 °F 36% 30.56 in 10.0 mi ESE 3.5 mph - N/A   Clear
1:35 AM 60.8 °F 32.0 °F 34% 30.56 in 10.0 mi ESE 5.8 mph - N/A   Clear
1:55 AM 59.0 °F 32.0 °F 36% 30.56 in 10.0 mi ESE 5.8 mph - N/A   Clear
2:15 AM 59.0 °F 32.0 °F 36% 30.56 in 10.0 mi ESE 4.6 mph - N/A   Clear
2:35 AM 60.8 °F 32.0 °F 34% 30.56 in 10.0 mi SE 4.6 mph - N/A   Clear
2:55 AM 59.0 °F 32.0 °F 36% 30.56 in 10.0 mi ESE 5.8 mph - N/A   Clear
3:15 AM 60.8 °F 30.2 °F 31% 30.56 in 10.0 mi ESE 5.8 mph - N/A   Clear
3:35 AM 59.0 °F 30.2 °F 34% 30.55 in 10.0 mi SE 5.8 mph - N/A   Clear
3:55 AM 59.0 °F 30.2 °F 34% 30.55 in 10.0 mi ESE 6.9 mph - N/A   Clear
4:15 AM 59.0 °F 32.0 °F 36% 30.55 in 10.0 mi East 4.6 mph - N/A   Clear
4:35 AM 59.0 °F 30.2 °F 34% 30.55 in 10.0 mi ESE 4.6 mph - N/A   Clear
4:55 AM 59.0 °F 32.0 °F 36% 30.55 in 10.0 mi ESE 6.9 mph - N/A   Clear
5:15 AM 59.0 °F 32.0 °F 36% 30.56 in 10.0 mi SE 6.9 mph - N/A   Clear
5:35 AM 59.0 °F 32.0 °F 36% 30.56 in 10.0 mi ESE 8.1 mph - N/A   Clear
5:55 AM 57.2 °F 32.0 °F 38% 30.56 in 10.0 mi SE 9.2 mph - N/A   Clear
6:55 AM 59.0 °F 32.0 °F 36% 30.58 in 10.0 mi ESE 5.8 mph - N/A   Clear
7:15 AM 59.0 °F 32.0 °F 36% 30.58 in 10.0 mi ESE 6.9 mph - N/A   Clear
7:35 AM 59.0 °F 32.0 °F 36% 30.58 in 10.0 mi ESE 5.8 mph - N/A   Clear
7:55 AM 60.8 °F 32.0 °F 34% 30.58 in 10.0 mi ESE 5.8 mph - N/A   Clear
8:15 AM 62.6 °F 32.0 °F 32% 30.59 in 10.0 mi ESE 4.6 mph - N/A   Clear
8:35 AM 66.2 °F 35.6 °F 32% 30.59 in 10.0 mi ESE 3.5 mph - N/A   Clear
8:55 AM 68.0 °F 35.6 °F 30% 30.59 in 10.0 mi Calm Calm - N/A   Clear
9:15 AM 69.8 °F 35.6 °F 28% 30.59 in 10.0 mi Calm Calm - N/A   Clear
9:35 AM 73.4 °F 33.8 °F 23% 30.59 in 7.0 mi Calm Calm - N/A   Clear
9:55 AM 75.2 °F 32.0 °F 21% 30.59 in 10.0 mi SE 3.5 mph - N/A   Clear
10:15 AM 78.8 °F 32.0 °F 18% 30.59 in 10.0 mi Calm Calm - N/A   Clear
10:35 AM 78.8 °F 32.0 °F 18% 30.59 in 10.0 mi Calm Calm - N/A   Clear
10:55 AM 78.8 °F 30.2 °F 17% 30.59 in 7.0 mi West 5.8 mph - N/A   Clear
11:15 AM 78.8 °F 30.2 °F 17% 30.59 in 10.0 mi West 10.4 mph 21.9 mph N/A   Clear
11:35 AM 80.6 °F 28.4 °F 15% 30.58 in 10.0 mi SW 8.1 mph 16.1 mph N/A   Clear
11:55 AM 80.6 °F 28.4 °F 15% 30.59 in 10.0 mi NW 5.8 mph 9.2 mph N/A   Clear
12:15 PM 80.6 °F 28.4 °F 15% 30.57 in 10.0 mi NNW 6.9 mph 20.7 mph N/A   Clear
12:35 PM 80.6 °F 24.8 °F 13% 30.57 in 10.0 mi NW 6.9 mph - N/A   Clear
12:55 PM 80.6 °F 26.6 °F 14% 30.56 in 10.0 mi West 10.4 mph - N/A   Clear
1:15 PM 80.6 °F 26.6 °F 14% 30.55 in 10.0 mi WNW 4.6 mph - N/A   Scattered Clouds
1:35 PM 80.6 °F 26.6 °F 14% 30.55 in 10.0 mi West 5.8 mph - N/A   Scattered Clouds
1:55 PM 82.4 °F 30.2 °F 15% 30.53 in 10.0 mi Calm Calm - N/A   Clear
2:15 PM 82.4 °F 28.4 °F 14% 30.53 in 10.0 mi NW 6.9 mph - N/A   Clear
2:35 PM 82.4 °F 28.4 °F 14% 30.52 in 10.0 mi West 15.0 mph 20.7 mph N/A   Scattered Clouds
2:55 PM 80.6 °F 28.4 °F 15% 30.51 in 10.0 mi North 4.6 mph 17.3 mph N/A   Mostly Cloudy
3:15 PM 82.4 °F 30.2 °F 15% 30.50 in 10.0 mi West 17.3 mph 24.2 mph N/A   Mostly Cloudy
3:35 PM 84.2 °F 32.0 °F 15% 30.50 in 10.0 mi North 3.5 mph - N/A   Mostly Cloudy
3:55 PM 82.4 °F 30.2 °F 15% 30.50 in 10.0 mi ENE 3.5 mph - N/A   Scattered Clouds
4:15 PM 82.4 °F 30.2 °F 15% 30.49 in 10.0 mi North 4.6 mph - N/A   Scattered Clouds
4:35 PM 82.4 °F 30.2 °F 15% 30.49 in 10.0 mi NNW 4.6 mph - N/A   Scattered Clouds
4:55 PM 82.4 °F 28.4 °F 14% 30.48 in 10.0 mi Calm Calm - N/A   Clear
5:15 PM 82.4 °F 26.6 °F 13% 30.48 in 10.0 mi North 5.8 mph - N/A   Clear
5:35 PM 82.4 °F 26.6 °F 13% 30.48 in 10.0 mi North 5.8 mph - N/A   Clear
5:55 PM 82.4 °F 26.6 °F 13% 30.48 in 10.0 mi Calm Calm - N/A   Clear
6:15 PM 80.6 °F 26.6 °F 14% 30.48 in 10.0 mi Calm Calm - N/A   Clear
6:35 PM 78.8 °F 23.0 °F 13% 30.47 in 10.0 mi North 3.5 mph - N/A   Clear
6:55 PM 80.6 °F 23.0 °F 12% 30.47 in 10.0 mi Calm Calm - N/A   Clear
7:15 PM 78.8 °F 24.8 °F 14% 30.47 in 10.0 mi Calm Calm - N/A   Clear
7:35 PM 78.8 °F 21.2 °F 12% 30.47 in 10.0 mi Calm Calm - N/A   Clear
7:55 PM 78.8 °F 21.2 °F 12% 30.47 in 10.0 mi North 3.5 mph - N/A   Clear
8:15 PM 77.0 °F 21.2 °F 12% 30.48 in 10.0 mi Calm Calm - N/A   Clear
8:35 PM 77.0 °F 23.0 °F 13% 30.48 in 10.0 mi NW 3.5 mph - N/A   Clear
8:55 PM 75.2 °F 23.0 °F 14% 30.48 in 10.0 mi Calm Calm - N/A   Clear
9:15 PM 71.6 °F 26.6 °F 19% 30.50 in 10.0 mi Calm Calm - N/A   Clear
9:35 PM 73.4 °F 30.2 °F 20% 30.50 in 10.0 mi NNE 3.5 mph - N/A   Clear
9:55 PM 73.4 °F 30.2 °F 20% 30.50 in 10.0 mi North 4.6 mph - N/A   Clear
10:15 PM 71.6 °F 30.2 °F 22% 30.51 in 10.0 mi SE 6.9 mph - N/A   Clear
10:35 PM 69.8 °F 30.2 °F 23% 30.53 in 10.0 mi East 5.8 mph - N/A   Clear
10:55 PM 69.8 °F 32.0 °F 25% 30.53 in 10.0 mi ESE 3.5 mph - N/A   Clear
11:15 PM 69.8 °F 32.0 °F 25% 30.53 in 10.0 mi Calm Calm - N/A   Clear
11:35 PM 69.8 °F 32.0 °F 25% 30.53 in 10.0 mi SE 10.4 mph 16.1 mph N/A   Clear
11:55 PM 69.8 °F 32.0 °F 25% 30.53 in 10.0 mi SE 8.1 mph - N/A   Clear